,,,PA_Meas_PMT16A,,PR_Meas_QMR101_102,,RH_Meas_QMH101,,SR_Meas_QMS101,,TA_Meas_QMH101,,GenWind,,GenWind,
date,time,status,PA,status,PR,status,RH,status,SR,status,TA,status,DirAvg,status,SpdAvg,
2009-03-06, 00:00:05,VALID,1004.65,VALID,0,VALID,87.9152,VALID,0,VALID,25.1053,VALID,116,VALID,0.282813,
2009-03-06, 00:01:05,VALID,1004.63,VALID,0,VALID,88.1288,VALID,0,VALID,25.0469,VALID,116,VALID,0.141016,
2009-03-06, 00:02:05,VALID,1004.67,VALID,0,VALID,88.5408,VALID,0,VALID,25.0079,VALID,116,VALID,0.0734375,
2009-03-06, 00:03:05,VALID,1004.64,VALID,0,VALID,88.8841,VALID,0,VALID,24.9476,VALID,116,VALID,0,
2009-03-06, 00:04:05,VALID,1004.67,VALID,0,VALID,89.1435,VALID,0,VALID,24.8892,VALID,116,VALID,0.028125,
2009-03-06, 00:05:05,VALID,1004.69,VALID,0,VALID,89.3876,VALID,0,VALID,24.8327,VALID,116,VALID,0.2375,
2009-03-06, 00:06:05,VALID,1004.67,VALID,0,VALID,89.5707,VALID,0,VALID,24.7353,VALID,116,VALID,0,
2009-03-06, 00:07:05,VALID,1004.67,VALID,0,VALID,89.8835,VALID,0,VALID,24.6964,VALID,116,VALID,0,
2009-03-06, 00:08:05,VALID,1004.68,VALID,0,VALID,90.1886,VALID,0,VALID,24.6769,VALID,116,VALID,0,
2009-03-06, 00:09:05,VALID,1004.65,VALID,0,VALID,90.448,VALID,0,VALID,24.6574,VALID,116,VALID,0.00351562,
2009-03-06, 00:10:05,VALID,1004.63,VALID,0,VALID,90.4633,VALID,0,VALID,24.5796,VALID,116,VALID,0.33125,
2009-03-06, 00:11:05,VALID,1004.63,VALID,0,VALID,90.6998,VALID,0,VALID,24.4998,VALID,116,VALID,0,
2009-03-06, 00:12:05,VALID,1004.61,VALID,0,VALID,90.7913,VALID,0,VALID,24.4628,VALID,116,VALID,0.360547,
2009-03-06, 00:13:05,VALID,1004.6,VALID,0,VALID,90.8981,VALID,0,VALID,24.4043,VALID,95,VALID,0.462891,
2009-03-06, 00:14:05,VALID,1004.6,VALID,0,VALID,91.1041,VALID,0,VALID,24.3459,VALID,95,VALID,0.06875,
2009-03-06, 00:15:05,VALID,1004.6,VALID,0,VALID,91.3558,VALID,0,VALID,24.307,VALID,95,VALID,0,
2009-03-06, 00:16:05,VALID,1004.62,VALID,0,VALID,91.5389,VALID,0,VALID,24.2662,VALID,52,VALID,0.374609,
2009-03-06, 00:17:05,VALID,1004.62,VALID,0,VALID,91.7144,VALID,0,VALID,24.2486,VALID,37,VALID,0.357422,
2009-03-06, 00:18:05,VALID,1004.62,VALID,0,VALID,91.9738,VALID,0,VALID,24.2291,VALID,37,VALID,0.225781,
2009-03-06, 00:19:05,VALID,1004.62,VALID,0,VALID,92.1111,VALID,0,VALID,24.2486,VALID,37,VALID,0.0683594,
2009-03-06, 00:20:05,VALID,1004.63,VALID,0,VALID,92.1569,VALID,0,VALID,24.2097,VALID,37,VALID,0.248437,
2009-03-06, 00:21:05,VALID,1004.61,VALID,0,VALID,92.2103,VALID,0,VALID,24.1689,VALID,37,VALID,0.298047,
2009-03-06, 00:22:05,VALID,1004.57,VALID,0,VALID,92.3171,VALID,0,VALID,24.1707,VALID,37,VALID,0.422656,
2009-03-06, 00:23:05,VALID,1004.59,VALID,0,VALID,92.401,VALID,0,VALID,24.1494,VALID,37,VALID,0.514453,
2009-03-06, 00:24:05,VALID,1004.57,VALID,0,VALID,92.4163,VALID,0,VALID,24.1318,VALID,37,VALID,0.435547,
2009-03-06, 00:25:05,VALID,1004.54,VALID,0,VALID,92.4925,VALID,0,VALID,24.0716,VALID,37,VALID,0.161719,
2009-03-06, 00:26:05,VALID,1004.54,VALID,0,VALID,92.668,VALID,0,VALID,24.0521,VALID,37,VALID,0.223828,
2009-03-06, 00:27:05,VALID,1004.52,VALID,0,VALID,92.7519,VALID,0,VALID,24.0716,VALID,37,VALID,0.363281,
2009-03-06, 00:28:05,VALID,1004.5,VALID,0,VALID,92.7824,VALID,0,VALID,24.0521,VALID,37,VALID,0,
2009-03-06, 00:29:05,VALID,1004.49,VALID,0,VALID,92.6985,VALID,0,VALID,24.0539,VALID,37,VALID,0.461328,
2009-03-06, 00:30:05,VALID,1004.47,VALID,0,VALID,92.7138,VALID,0,VALID,24.015,VALID,37,VALID,0.269922,
2009-03-06, 00:31:05,VALID,1004.47,VALID,0,VALID,92.874,VALID,0,VALID,23.9937,VALID,37,VALID,0.374609,
2009-03-06, 00:32:05,VALID,1004.45,VALID,0,VALID,92.9274,VALID,0,VALID,24.0132,VALID,37,VALID,0.0691406,
2009-03-06, 00:33:05,VALID,1004.44,VALID,0,VALID,92.9274,VALID,0,VALID,24.0345,VALID,37,VALID,0.411719,
2009-03-06, 00:34:05,VALID,1004.44,VALID,0,VALID,92.9961,VALID,0,VALID,23.9742,VALID,37,VALID,0.267969,
2009-03-06, 00:35:05,VALID,1004.4,VALID,0,VALID,93.1029,VALID,0,VALID,24.015,VALID,37,VALID,0.28125,
2009-03-06, 00:36:05,VALID,1004.41,VALID,0,VALID,93.1029,VALID,0,VALID,23.9937,VALID,37,VALID,0.285547,
2009-03-06, 00:37:05,VALID,1004.41,VALID,0,VALID,93.08,VALID,0,VALID,23.9761,VALID,43,VALID,0.0472656,
2009-03-06, 00:38:05,VALID,1004.4,VALID,0,VALID,93.0495,VALID,0,VALID,23.9566,VALID,43,VALID,0,
2009-03-06, 00:39:05,VALID,1004.38,VALID,0,VALID,93.0342,VALID,0,VALID,23.9371,VALID,46,VALID,0.430078,
2009-03-06, 00:40:05,VALID,1004.41,VALID,0,VALID,93.1334,VALID,0,VALID,23.8964,VALID,52,VALID,0.378906,
2009-03-06, 00:41:05,VALID,1004.39,VALID,0,VALID,93.1944,VALID,0,VALID,23.8964,VALID,52,VALID,0.105859,
2009-03-06, 00:42:05,VALID,1004.39,VALID,0,VALID,93.2554,VALID,0,VALID,23.8769,VALID,52,VALID,0,
2009-03-06, 00:43:05,VALID,1004.34,VALID,0,VALID,93.2936,VALID,0,VALID,23.8964,VALID,52,VALID,0.289063,
2009-03-06, 00:44:05,VALID,1004.36,VALID,0,VALID,93.3699,VALID,0,VALID,23.8964,VALID,52,VALID,0.115234,
2009-03-06, 00:45:05,VALID,1004.34,VALID,0,VALID,93.3775,VALID,0,VALID,23.8769,VALID,52,VALID,0,
2009-03-06, 00:46:05,VALID,1004.34,VALID,0,VALID,93.4538,VALID,0,VALID,23.9177,VALID,52,VALID,0,
2009-03-06, 00:47:05,VALID,1004.3,VALID,0,VALID,93.4843,VALID,0,VALID,23.9159,VALID,52,VALID,0.329297,
2009-03-06, 00:48:05,VALID,1004.28,VALID,0,VALID,93.5148,VALID,0,VALID,23.9159,VALID,52,VALID,0.108984,
2009-03-06, 00:49:05,VALID,1004.26,VALID,0,VALID,93.5911,VALID,0,VALID,23.8946,VALID,52,VALID,0.454297,
2009-03-06, 00:50:05,VALID,1004.25,VALID,0,VALID,93.6292,VALID,0,VALID,23.9353,VALID,47,VALID,0.626562,
2009-03-06, 00:51:05,VALID,1004.26,VALID,0,VALID,93.5987,VALID,0,VALID,23.9159,VALID,47,VALID,0.559375,
2009-03-06, 00:52:05,VALID,1004.24,VALID,0,VALID,93.6064,VALID,0,VALID,23.8946,VALID,47,VALID,0.357422,
2009-03-06, 00:53:05,VALID,1004.23,VALID,0,VALID,93.614,VALID,0,VALID,23.9159,VALID,47,VALID,0.562891,
2009-03-06, 00:54:05,VALID,1004.23,VALID,0,VALID,93.5835,VALID,0,VALID,23.9353,VALID,47,VALID,0.321094,
2009-03-06, 00:55:05,VALID,1004.23,VALID,0,VALID,93.5682,VALID,0,VALID,23.9159,VALID,47,VALID,0.478516,
2009-03-06, 00:56:05,VALID,1004.21,VALID,0,VALID,93.6216,VALID,0,VALID,23.9159,VALID,47,VALID,0.357031,
2009-03-06, 00:57:05,VALID,1004.22,VALID,0,VALID,93.6445,VALID,0,VALID,23.9761,VALID,47,VALID,0.438672,
2009-03-06, 00:58:05,VALID,1004.26,VALID,0,VALID,93.6369,VALID,0,VALID,23.9548,VALID,47,VALID,0.213281,
2009-03-06, 00:59:05,VALID,1004.24,VALID,0,VALID,93.6292,VALID,0,VALID,23.9742,VALID,47,VALID,0.196484,
2009-03-06, 01:00:05,VALID,1004.25,VALID,0,VALID,93.5911,VALID,0,VALID,23.9955,VALID,47,VALID,0.288281,
2009-03-06, 01:01:05,VALID,1004.23,VALID,0,VALID,93.614,VALID,0,VALID,23.9937,VALID,54,VALID,0.509766,
2009-03-06, 01:02:05,VALID,1004.22,VALID,0,VALID,93.614,VALID,0,VALID,24.015,VALID,56,VALID,0.319531,
2009-03-06, 01:03:05,VALID,1004.18,VALID,0,VALID,93.5835,VALID,0,VALID,24.015,VALID,56,VALID,0.453516,
2009-03-06, 01:04:05,VALID,1004.16,VALID,0,VALID,93.6216,VALID,0,VALID,24.015,VALID,58,VALID,0.2375,
2009-03-06, 01:05:05,VALID,1004.15,VALID,0,VALID,93.5682,VALID,0,VALID,24.015,VALID,58,VALID,0.292188,
2009-03-06, 01:06:05,VALID,1004.15,VALID,0,VALID,93.5682,VALID,0,VALID,24.015,VALID,58,VALID,0.0375,
2009-03-06, 01:07:05,VALID,1004.19,VALID,0,VALID,93.5911,VALID,0,VALID,23.9955,VALID,58,VALID,0.292969,
2009-03-06, 01:08:05,VALID,1004.14,VALID,0,VALID,93.5911,VALID,0,VALID,23.9973,VALID,58,VALID,0,
2009-03-06, 01:09:05,VALID,1004.12,VALID,0,VALID,93.6064,VALID,0,VALID,24.0168,VALID,58,VALID,0,
2009-03-06, 01:10:05,VALID,1004.13,VALID,0,VALID,93.5987,VALID,0,VALID,23.9761,VALID,58,VALID,0,
2009-03-06, 01:11:05,VALID,1004.1,VALID,0,VALID,93.6064,VALID,0.100563,VALID,23.9548,VALID,58,VALID,0,
2009-03-06, 01:12:05,VALID,1004.08,VALID,0,VALID,93.6521,VALID,0,VALID,23.9742,VALID,58,VALID,0,
2009-03-06, 01:13:05,VALID,1004.05,VALID,0,VALID,93.7284,VALID,0,VALID,23.9742,VALID,62,VALID,0.242969,
2009-03-06, 01:14:05,VALID,1004.05,VALID,0,VALID,93.7208,VALID,0,VALID,23.9742,VALID,62,VALID,0.133594,
2009-03-06, 01:15:05,VALID,1004.03,VALID,0,VALID,93.7361,VALID,0,VALID,24.015,VALID,62,VALID,0.3875,
2009-03-06, 01:16:05,VALID,1004.01,VALID,0,VALID,93.7666,VALID,0,VALID,23.9937,VALID,42,VALID,0.603906,
2009-03-06, 01:17:05,VALID,1003.97,VALID,0,VALID,93.7437,VALID,0,VALID,24.015,VALID,42,VALID,0.298047,
2009-03-06, 01:18:05,VALID,1003.99,VALID,0,VALID,93.7971,VALID,0,VALID,23.9937,VALID,42,VALID,0.292969,
2009-03-06, 01:19:05,VALID,1003.99,VALID,0,VALID,93.7742,VALID,0,VALID,24.0132,VALID,42,VALID,0.10625,
2009-03-06, 01:20:05,VALID,1003.97,VALID,0,VALID,93.7895,VALID,0.100563,VALID,24.0132,VALID,42,VALID,0.185156,
2009-03-06, 01:21:05,VALID,1003.97,VALID,0,VALID,93.8047,VALID,0,VALID,24.0539,VALID,42,VALID,0.274219,
2009-03-06, 01:22:05,VALID,1003.99,VALID,0,VALID,93.7971,VALID,0,VALID,24.0521,VALID,42,VALID,0.184375,
2009-03-06, 01:23:05,VALID,1004.01,VALID,0,VALID,93.7742,VALID,0,VALID,24.0521,VALID,42,VALID,0,
2009-03-06, 01:24:05,VALID,1003.98,VALID,0,VALID,93.8886,VALID,0,VALID,24.091,VALID,61,VALID,0.259766,
2009-03-06, 01:25:05,VALID,1003.95,VALID,0,VALID,93.8734,VALID,0,VALID,24.1105,VALID,61,VALID,0.226953,
2009-03-06, 01:26:05,VALID,1004.01,VALID,0,VALID,93.8657,VALID,0,VALID,24.1105,VALID,61,VALID,0.283203,
2009-03-06, 01:27:05,VALID,1003.97,VALID,0,VALID,93.8734,VALID,0,VALID,24.13,VALID,61,VALID,0.274219,
2009-03-06, 01:28:05,VALID,1003.97,VALID,0,VALID,93.8276,VALID,0,VALID,24.1494,VALID,61,VALID,0.119141,
2009-03-06, 01:29:05,VALID,1003.97,VALID,0,VALID,93.8123,VALID,0.100563,VALID,24.1689,VALID,61,VALID,0.230469,
2009-03-06, 01:30:05,VALID,1003.94,VALID,0,VALID,93.7971,VALID,0,VALID,24.1689,VALID,64,VALID,0.558203,
2009-03-06, 01:31:05,VALID,1003.95,VALID,0,VALID,93.8047,VALID,0.100563,VALID,24.1884,VALID,65,VALID,0.492969,
2009-03-06, 01:32:05,VALID,1003.92,VALID,0,VALID,93.7895,VALID,0,VALID,24.1689,VALID,65,VALID,0.317969,
2009-03-06, 01:33:05,VALID,1003.88,VALID,0,VALID,93.7513,VALID,0.100563,VALID,24.1884,VALID,64,VALID,0.292969,
2009-03-06, 01:34:05,VALID,1003.87,VALID,0,VALID,93.7437,VALID,0.100563,VALID,24.1884,VALID,64,VALID,0.244141,
2009-03-06, 01:35:05,VALID,1003.83,VALID,0,VALID,93.6903,VALID,0,VALID,24.1689,VALID,64,VALID,0.2,
2009-03-06, 01:36:05,VALID,1003.79,VALID,0,VALID,93.6826,VALID,0.100563,VALID,24.1476,VALID,64,VALID,0.405078,
2009-03-06, 01:37:05,VALID,1003.77,VALID,0,VALID,93.7284,VALID,0,VALID,24.1884,VALID,64,VALID,0.364844,
2009-03-06, 01:38:05,VALID,1003.74,VALID,0,VALID,93.7589,VALID,0.100563,VALID,24.1884,VALID,64,VALID,0.362891,
2009-03-06, 01:39:05,VALID,1003.75,VALID,0,VALID,93.7055,VALID,0,VALID,24.1884,VALID,64,VALID,0.207813,
2009-03-06, 01:40:05,VALID,1003.73,VALID,0,VALID,93.6979,VALID,0.100563,VALID,24.1884,VALID,64,VALID,0,
2009-03-06, 01:41:05,VALID,1003.69,VALID,0,VALID,93.6598,VALID,0,VALID,24.1689,VALID,64,VALID,0,
2009-03-06, 01:42:05,VALID,1003.66,VALID,0,VALID,93.6674,VALID,0,VALID,24.1689,VALID,64,VALID,0.244531,
2009-03-06, 01:43:05,VALID,1003.64,VALID,0,VALID,93.6903,VALID,0.100563,VALID,24.1689,VALID,64,VALID,0.0699219,
2009-03-06, 01:44:05,VALID,1003.63,VALID,0,VALID,93.6826,VALID,0,VALID,24.1707,VALID,64,VALID,0,
2009-03-06, 01:45:05,VALID,1003.59,VALID,0,VALID,93.7055,VALID,0,VALID,24.1689,VALID,64,VALID,0.464844,
2009-03-06, 01:46:05,VALID,1003.6,VALID,0,VALID,93.7208,VALID,0,VALID,24.1689,VALID,64,VALID,0,
2009-03-06, 01:47:05,VALID,1003.57,VALID,0,VALID,93.7666,VALID,0,VALID,24.2078,VALID,64,VALID,0.307813,
2009-03-06, 01:48:05,VALID,1003.57,VALID,0,VALID,93.7971,VALID,0,VALID,24.2273,VALID,64,VALID,0.204297,
2009-03-06, 01:49:05,VALID,1003.58,VALID,0,VALID,93.7666,VALID,0,VALID,24.2273,VALID,64,VALID,0.239453,
2009-03-06, 01:50:05,VALID,1003.57,VALID,0,VALID,93.8123,VALID,0,VALID,24.2681,VALID,44,VALID,0.514453,
2009-03-06, 01:51:05,VALID,1003.59,VALID,0,VALID,93.7132,VALID,0,VALID,24.2662,VALID,44,VALID,0.638281,
2009-03-06, 01:52:05,VALID,1003.58,VALID,0,VALID,93.6369,VALID,0.100563,VALID,24.2255,VALID,44,VALID,0.375,
2009-03-06, 01:53:05,VALID,1003.59,VALID,0,VALID,93.5453,VALID,0.100563,VALID,24.2468,VALID,44,VALID,0.209375,
2009-03-06, 01:54:05,VALID,1003.53,VALID,0,VALID,93.5301,VALID,0,VALID,24.2273,VALID,44,VALID,0.109766,
2009-03-06, 01:55:05,VALID,1003.55,VALID,0,VALID,93.5758,VALID,0.100563,VALID,24.2273,VALID,44,VALID,0.0386719,
2009-03-06, 01:56:05,VALID,1003.54,VALID,0,VALID,93.5377,VALID,0.100563,VALID,24.2468,VALID,44,VALID,0,
2009-03-06, 01:57:05,VALID,1003.53,VALID,0,VALID,93.5224,VALID,0,VALID,24.2273,VALID,44,VALID,0,
2009-03-06, 01:58:05,VALID,1003.55,VALID,0,VALID,93.5224,VALID,0.100563,VALID,24.2273,VALID,44,VALID,0.0273438,
2009-03-06, 01:59:05,VALID,1003.55,VALID,0,VALID,93.4996,VALID,0,VALID,24.2468,VALID,44,VALID,0.0808594,
2009-03-06, 02:00:05,VALID,1003.54,VALID,0,VALID,93.4843,VALID,0.100563,VALID,24.2468,VALID,44,VALID,0.360156,
2009-03-06, 02:01:05,VALID,1003.56,VALID,0,VALID,93.5148,VALID,0,VALID,24.2468,VALID,44,VALID,0.230469,
2009-03-06, 02:02:05,VALID,1003.52,VALID,0,VALID,93.553,VALID,0,VALID,24.2662,VALID,44,VALID,0.071875,
2009-03-06, 02:03:05,VALID,1003.51,VALID,0,VALID,93.5682,VALID,0,VALID,24.2662,VALID,44,VALID,0,
2009-03-06, 02:04:05,VALID,1003.48,VALID,0,VALID,93.5224,VALID,0,VALID,24.2662,VALID,44,VALID,0,
2009-03-06, 02:05:05,VALID,1003.47,VALID,0,VALID,93.4767,VALID,0.100563,VALID,24.2662,VALID,44,VALID,0,
2009-03-06, 02:06:05,VALID,1003.44,VALID,0,VALID,93.4385,VALID,0,VALID,24.2681,VALID,44,VALID,0.253516,
2009-03-06, 02:07:05,VALID,1003.42,VALID,0,VALID,93.3851,VALID,0.100563,VALID,24.2078,VALID,44,VALID,0.221484,
2009-03-06, 02:08:05,VALID,1003.4,VALID,0,VALID,93.3699,VALID,0,VALID,24.1476,VALID,44,VALID,0.483594,
2009-03-06, 02:09:05,VALID,1003.39,VALID,0,VALID,93.3394,VALID,0,VALID,24.1281,VALID,44,VALID,0.500781,
2009-03-06, 02:10:05,VALID,1003.37,VALID,0,VALID,93.4156,VALID,0,VALID,24.1105,VALID,45,VALID,0.665625,
2009-03-06, 02:11:05,VALID,1003.31,VALID,0,VALID,93.4462,VALID,0,VALID,24.091,VALID,45,VALID,0.442969,
2009-03-06, 02:12:05,VALID,1003.3,VALID,0,VALID,93.4843,VALID,0,VALID,24.0716,VALID,45,VALID,0.377734,
2009-03-06, 02:13:05,VALID,1003.32,VALID,0,VALID,93.5224,VALID,0,VALID,24.0716,VALID,45,VALID,0.476172,
2009-03-06, 02:14:05,VALID,1003.29,VALID,0,VALID,93.5301,VALID,0,VALID,24.0521,VALID,45,VALID,0.365625,
2009-03-06, 02:15:05,VALID,1003.27,VALID,0,VALID,93.5224,VALID,0.100563,VALID,24.0326,VALID,45,VALID,0.380859,
2009-03-06, 02:16:05,VALID,1003.28,VALID,0,VALID,93.5606,VALID,0,VALID,24.0326,VALID,45,VALID,0.54375,
2009-03-06, 02:17:05,VALID,1003.26,VALID,0,VALID,93.6521,VALID,0,VALID,24.0326,VALID,45,VALID,0.502734,
2009-03-06, 02:18:05,VALID,1003.26,VALID,0,VALID,93.6598,VALID,0,VALID,24.0326,VALID,45,VALID,0.620703,
2009-03-06, 02:19:05,VALID,1003.25,VALID,0,VALID,93.6674,VALID,0.100563,VALID,24.0326,VALID,45,VALID,0.588281,
2009-03-06, 02:20:05,VALID,1003.24,VALID,0,VALID,93.614,VALID,0,VALID,24.0132,VALID,45,VALID,0.304688,
2009-03-06, 02:21:05,VALID,1003.22,VALID,0,VALID,93.6064,VALID,0.100563,VALID,24.0132,VALID,45,VALID,0.322656,
2009-03-06, 02:22:05,VALID,1003.17,VALID,0,VALID,93.6521,VALID,0,VALID,24.0132,VALID,45,VALID,0.307422,
2009-03-06, 02:23:05,VALID,1003.17,VALID,0,VALID,93.6979,VALID,0.100563,VALID,24.0326,VALID,45,VALID,0.452734,
2009-03-06, 02:24:05,VALID,1003.16,VALID,0,VALID,93.7818,VALID,0.100563,VALID,24.0716,VALID,45,VALID,0.519141,
2009-03-06, 02:25:05,VALID,1003.16,VALID,0,VALID,93.7742,VALID,0.100563,VALID,24.0503,VALID,45,VALID,0.599219,
2009-03-06, 02:26:05,VALID,1003.18,VALID,0,VALID,93.8047,VALID,0,VALID,24.0326,VALID,45,VALID,0.524219,
2009-03-06, 02:27:05,VALID,1003.17,VALID,0,VALID,93.7895,VALID,0,VALID,24.0521,VALID,45,VALID,0.287891,
2009-03-06, 02:28:05,VALID,1003.17,VALID,0,VALID,93.7055,VALID,0,VALID,24.0345,VALID,45,VALID,0.325391,
2009-03-06, 02:29:05,VALID,1003.16,VALID,0,VALID,93.7437,VALID,0,VALID,24.0132,VALID,45,VALID,0.319531,
2009-03-06, 02:30:05,VALID,1003.16,VALID,0,VALID,93.9115,VALID,0,VALID,24.0539,VALID,356,VALID,0.575,
2009-03-06, 02:31:05,VALID,1003.16,VALID,0,VALID,93.9115,VALID,0,VALID,24.0734,VALID,354,VALID,0.529688,
2009-03-06, 02:32:05,VALID,1003.15,VALID,0,VALID,93.9268,VALID,0,VALID,24.0716,VALID,354,VALID,0.264453,
2009-03-06, 02:33:05,VALID,1003.13,VALID,0,VALID,93.8734,VALID,0,VALID,24.0929,VALID,354,VALID,0.483203,
2009-03-06, 02:34:05,VALID,1003.1,VALID,0,VALID,93.8047,VALID,0,VALID,24.0716,VALID,354,VALID,0.676562,
2009-03-06, 02:35:04,VALID,1003.08,VALID,0,VALID,93.7208,VALID,0,VALID,24.0521,VALID,354,VALID,0.666406,
2009-03-06, 02:36:04,VALID,1003.05,VALID,0,VALID,93.7208,VALID,0,VALID,24.0326,VALID,354,VALID,0.723437,
2009-03-06, 02:37:04,VALID,1003.05,VALID,0,VALID,93.7208,VALID,0,VALID,24.0132,VALID,354,VALID,0.768359,
2009-03-06, 02:38:04,VALID,1003.06,VALID,0,VALID,93.6979,VALID,0,VALID,24.015,VALID,354,VALID,0.744531,
2009-03-06, 02:39:04,VALID,1003.06,VALID,0,VALID,93.7132,VALID,0,VALID,23.9955,VALID,354,VALID,0.735937,
2009-03-06, 02:40:04,VALID,1003.01,VALID,0,VALID,93.7361,VALID,0,VALID,23.9566,VALID,354,VALID,0.580078,
2009-03-06, 02:41:04,VALID,1003.04,VALID,0,VALID,93.7742,VALID,0,VALID,23.9353,VALID,354,VALID,0.641797,
2009-03-06, 02:42:04,VALID,1003.05,VALID,0,VALID,93.8429,VALID,0,VALID,23.9353,VALID,354,VALID,0.480469,
2009-03-06, 02:43:04,VALID,1003.03,VALID,0,VALID,93.8734,VALID,0,VALID,23.9371,VALID,354,VALID,0.498828,
2009-03-06, 02:44:04,VALID,1003.02,VALID,0,VALID,93.9115,VALID,0,VALID,23.9177,VALID,354,VALID,0.409766,
2009-03-06, 02:45:04,VALID,1003.04,VALID,0,VALID,93.9191,VALID,0,VALID,23.9371,VALID,354,VALID,0.472656,
2009-03-06, 02:46:04,VALID,1003.01,VALID,0,VALID,93.9573,VALID,0,VALID,23.8964,VALID,354,VALID,0.291406,
2009-03-06, 02:47:04,VALID,1003.02,VALID,0,VALID,93.8963,VALID,0,VALID,23.8769,VALID,354,VALID,0.241406,
2009-03-06, 02:48:04,VALID,1002.98,VALID,0,VALID,93.9497,VALID,0,VALID,23.8787,VALID,354,VALID,0.230859,
2009-03-06, 02:49:04,VALID,1002.96,VALID,0,VALID,93.9573,VALID,0,VALID,23.8593,VALID,354,VALID,0,
2009-03-06, 02:50:04,VALID,1002.93,VALID,0,VALID,93.9725,VALID,0,VALID,23.8398,VALID,354,VALID,0,
2009-03-06, 02:51:04,VALID,1002.93,VALID,0,VALID,93.9802,VALID,0,VALID,23.8611,VALID,354,VALID,0,
2009-03-06, 02:52:04,VALID,1002.96,VALID,0,VALID,93.9954,VALID,0,VALID,23.8185,VALID,354,VALID,0.389844,
2009-03-06, 02:53:04,VALID,1002.94,VALID,0,VALID,93.8886,VALID,0,VALID,23.8009,VALID,356,VALID,0.655859,
2009-03-06, 02:54:04,VALID,1002.96,VALID,0,VALID,93.9344,VALID,0,VALID,23.7601,VALID,356,VALID,0.494531,
2009-03-06, 02:55:04,VALID,1002.97,VALID,0,VALID,93.942,VALID,0,VALID,23.7425,VALID,356,VALID,0.411328,
2009-03-06, 02:56:04,VALID,1002.97,VALID,0,VALID,94.0565,VALID,0,VALID,23.7407,VALID,355,VALID,0.553125,
2009-03-06, 02:57:04,VALID,1002.95,VALID,0,VALID,94.1404,VALID,0,VALID,23.7814,VALID,354,VALID,0.651953,
2009-03-06, 02:58:04,VALID,1002.95,VALID,0,VALID,94.1862,VALID,0.100563,VALID,23.7796,VALID,354,VALID,0.485938,
2009-03-06, 02:59:04,VALID,1002.99,VALID,0,VALID,94.148,VALID,0,VALID,23.8203,VALID,354,VALID,0.469141,
2009-03-06, 03:00:04,VALID,1002.95,VALID,0,VALID,94.1099,VALID,0,VALID,23.8185,VALID,354,VALID,0.0878906,
2009-03-06, 03:01:04,VALID,1002.97,VALID,0,VALID,94.087,VALID,0,VALID,23.8185,VALID,354,VALID,0.151562,
2009-03-06, 03:02:04,VALID,1002.97,VALID,0,VALID,94.0183,VALID,0,VALID,23.7991,VALID,354,VALID,0,
2009-03-06, 03:03:04,VALID,1002.97,VALID,0,VALID,93.9725,VALID,0,VALID,23.7991,VALID,354,VALID,0.205078,
2009-03-06, 03:04:04,VALID,1002.95,VALID,0,VALID,93.9954,VALID,0,VALID,23.7796,VALID,354,VALID,0.282813,
2009-03-06, 03:05:04,VALID,1002.92,VALID,0,VALID,94.0183,VALID,0,VALID,23.8009,VALID,354,VALID,0.328516,
2009-03-06, 03:06:04,VALID,1002.9,VALID,0,VALID,94.0107,VALID,0,VALID,23.7814,VALID,354,VALID,0.471484,
2009-03-06, 03:07:04,VALID,1002.92,VALID,0,VALID,94.0031,VALID,0,VALID,23.7814,VALID,354,VALID,0.146875,
2009-03-06, 03:08:04,VALID,1002.88,VALID,0,VALID,93.9649,VALID,0,VALID,23.7619,VALID,354,VALID,0,
2009-03-06, 03:09:04,VALID,1002.88,VALID,0,VALID,93.942,VALID,0,VALID,23.7212,VALID,354,VALID,0,
2009-03-06, 03:10:04,VALID,1002.84,VALID,0,VALID,93.9344,VALID,0,VALID,23.7035,VALID,354,VALID,0,
2009-03-06, 03:11:04,VALID,1002.85,VALID,0,VALID,93.9344,VALID,0,VALID,23.6841,VALID,354,VALID,0,
2009-03-06, 03:12:04,VALID,1002.85,VALID,0,VALID,93.942,VALID,0,VALID,23.6646,VALID,354,VALID,0,
2009-03-06, 03:13:04,VALID,1002.85,VALID,0,VALID,93.9497,VALID,0,VALID,23.6452,VALID,354,VALID,0,
2009-03-06, 03:14:04,VALID,1002.87,VALID,0,VALID,93.9725,VALID,0,VALID,23.6062,VALID,354,VALID,0,
2009-03-06, 03:15:04,VALID,1002.89,VALID,0,VALID,93.9802,VALID,0,VALID,23.6062,VALID,354,VALID,0,
2009-03-06, 03:16:04,VALID,1002.92,VALID,0,VALID,93.9573,VALID,0,VALID,23.6062,VALID,354,VALID,0,
2009-03-06, 03:17:04,VALID,1002.97,VALID,0,VALID,94.0259,VALID,0,VALID,23.5868,VALID,354,VALID,0,
2009-03-06, 03:18:04,VALID,1002.96,VALID,0,VALID,94.0794,VALID,0,VALID,23.585,VALID,354,VALID,0,
2009-03-06, 03:19:04,VALID,1002.98,VALID,0,VALID,94.1404,VALID,0,VALID,23.6257,VALID,354,VALID,0,
2009-03-06, 03:20:04,VALID,1002.97,VALID,0,VALID,94.148,VALID,0,VALID,23.6257,VALID,354,VALID,0,
2009-03-06, 03:21:04,VALID,1002.98,VALID,0,VALID,94.1099,VALID,0,VALID,23.585,VALID,354,VALID,0,
2009-03-06, 03:22:04,VALID,1002.96,VALID,0,VALID,94.148,VALID,0,VALID,23.5655,VALID,354,VALID,0,
2009-03-06, 03:23:04,VALID,1002.95,VALID,0,VALID,94.0717,VALID,0,VALID,23.5673,VALID,5,VALID,0,
2009-03-06, 03:24:04,VALID,1002.98,VALID,0,VALID,94.0565,VALID,0,VALID,23.5478,VALID,24,VALID,0,
2009-03-06, 03:25:04,VALID,1002.97,VALID,0,VALID,94.0794,VALID,0,VALID,23.5284,VALID,24,VALID,0,
2009-03-06, 03:26:04,VALID,1002.95,VALID,0,VALID,94.2014,VALID,0,VALID,23.546,VALID,49,VALID,0,
2009-03-06, 03:27:04,VALID,1003,VALID,0,VALID,94.2701,VALID,0,VALID,23.6062,VALID,49,VALID,0,
2009-03-06, 03:28:04,VALID,1002.97,VALID,0,VALID,94.2853,VALID,0.100563,VALID,23.6257,VALID,49,VALID,0,
2009-03-06, 03:29:04,VALID,1003.03,VALID,0,VALID,94.3464,VALID,0,VALID,23.6434,VALID,49,VALID,0,
2009-03-06, 03:30:04,VALID,1003.04,VALID,0,VALID,94.3235,VALID,0.100563,VALID,23.6628,VALID,49,VALID,0,
2009-03-06, 03:31:04,VALID,1003.07,VALID,0,VALID,94.3235,VALID,0,VALID,23.6628,VALID,49,VALID,0,
2009-03-06, 03:32:04,VALID,1003.07,VALID,0,VALID,94.2777,VALID,0,VALID,23.6841,VALID,49,VALID,0,
2009-03-06, 03:33:04,VALID,1003.12,VALID,0,VALID,94.2624,VALID,0,VALID,23.6434,VALID,49,VALID,0,
2009-03-06, 03:34:04,VALID,1003.12,VALID,0,VALID,94.2624,VALID,0,VALID,23.6646,VALID,49,VALID,0,
2009-03-06, 03:35:04,VALID,1003.15,VALID,0,VALID,94.2319,VALID,0,VALID,23.6434,VALID,49,VALID,0,
2009-03-06, 03:36:04,VALID,1003.18,VALID,0,VALID,94.2243,VALID,0,VALID,23.6646,VALID,49,VALID,0,
2009-03-06, 03:37:04,VALID,1003.2,VALID,0,VALID,94.2472,VALID,0,VALID,23.6628,VALID,49,VALID,0,
2009-03-06, 03:38:04,VALID,1003.25,VALID,0,VALID,94.2472,VALID,0,VALID,23.6434,VALID,49,VALID,0,
2009-03-06, 03:39:04,VALID,1003.23,VALID,0,VALID,94.2243,VALID,0.100563,VALID,23.6434,VALID,49,VALID,0,
2009-03-06, 03:40:04,VALID,1003.27,VALID,0,VALID,94.2396,VALID,0,VALID,23.6434,VALID,49,VALID,0,
2009-03-06, 03:41:04,VALID,1003.26,VALID,0,VALID,94.2167,VALID,0,VALID,23.6044,VALID,49,VALID,0,
2009-03-06, 03:42:04,VALID,1003.29,VALID,0,VALID,94.148,VALID,0.100563,VALID,23.5868,VALID,48,VALID,0,
2009-03-06, 03:43:04,VALID,1003.3,VALID,0,VALID,94.2319,VALID,0,VALID,23.5655,VALID,48,VALID,0,
2009-03-06, 03:44:04,VALID,1003.35,VALID,0,VALID,94.2853,VALID,0.100563,VALID,23.585,VALID,48,VALID,0,
2009-03-06, 03:45:04,VALID,1003.36,VALID,0,VALID,94.3006,VALID,0,VALID,23.6044,VALID,48,VALID,0,
2009-03-06, 03:46:04,VALID,1003.39,VALID,0,VALID,94.3082,VALID,0.100563,VALID,23.585,VALID,48,VALID,0,
2009-03-06, 03:47:04,VALID,1003.39,VALID,0,VALID,94.3006,VALID,0,VALID,23.585,VALID,48,VALID,0,
2009-03-06, 03:48:04,VALID,1003.42,VALID,0,VALID,94.2167,VALID,0.100563,VALID,23.5655,VALID,48,VALID,0,